RYR7XK LICC-LIRF

Flight info

Callsign RYR7XK
Flight time 0h 51m
Altitude 34000
Route BUDIN DCT DIRED DCT SOR DCT TEA/N0325F180 Z803 LAT
Aircraft B38M/M-SADE3FGILRWY/SB1

Departure

Time 2026-02-20 10:51
Airport Catania-Fontanarossa Airport (LICC)

Arrival

Time 2026-02-20 11:43
Airport Rome–Fiumicino Leonardo da Vinci International Airport (LIRF)
Time Latitude Longitude Altitude Speed Heading
2026-02-20 10:32 37.46930 15.06762 34 ft 0 kts 354°
2026-02-20 10:44 37.46924 15.06763 34 ft 2 kts 355°
2026-02-20 10:44 37.46905 15.06765 34 ft 3 kts 347°
2026-02-20 10:45 37.46887 15.06773 34 ft 3 kts 344°
2026-02-20 10:45 37.46869 15.06775 34 ft 3 kts 19°
2026-02-20 10:45 37.46857 15.06763 34 ft 3 kts 68°
2026-02-20 10:45 37.46853 15.06746 34 ft 1 kts 84°
2026-02-20 10:46 37.46853 15.06745 34 ft 0 kts 84°
2026-02-20 10:48 37.46855 15.06775 34 ft 8 kts 84°
2026-02-20 10:48 37.46865 15.06897 34 ft 20 kts 84°
2026-02-20 10:49 37.46882 15.07104 35 ft 25 kts 84°
2026-02-20 10:49 37.46903 15.07338 35 ft 27 kts 84°
2026-02-20 10:49 37.46920 15.07553 35 ft 26 kts 84°
2026-02-20 10:49 37.46940 15.07787 35 ft 28 kts 84°
2026-02-20 10:50 37.46955 15.07979 35 ft 20 kts 87°
2026-02-20 10:50 37.46889 15.08084 36 ft 17 kts 175°
2026-02-20 10:50 37.46796 15.08026 38 ft 16 kts 246°
2026-02-20 10:50 37.46775 15.07798 39 ft 56 kts 263°
2026-02-20 10:51 37.46705 15.06952 39 ft 132 kts 263°
2026-02-20 10:51 37.46607 15.05682 525 ft 155 kts 263°
2026-02-20 10:51 37.46489 15.04311 1506 ft 151 kts 265°
2026-02-20 10:51 37.46384 15.02974 2313 ft 163 kts 264°
2026-02-20 10:52 37.46254 15.01468 2771 ft 187 kts 265°
2026-02-20 10:52 37.46118 14.99747 3555 ft 205 kts 265°
2026-02-20 10:52 37.45971 14.97938 4457 ft 216 kts 265°
2026-02-20 10:52 37.45871 14.96020 5481 ft 222 kts 277°
2026-02-20 10:53 37.46502 14.94181 6210 ft 242 kts 306°
2026-02-20 10:53 37.47807 14.92798 7241 ft 251 kts 326°
2026-02-20 10:53 37.49468 14.91985 8239 ft 265 kts 340°
2026-02-20 10:53 37.51284 14.91592 9250 ft 271 kts 344°
2026-02-20 10:54 37.53157 14.91219 10244 ft 275 kts 344°
2026-02-20 10:54 37.55104 14.90836 10865 ft 293 kts 345°
2026-02-20 10:54 37.57190 14.90427 11323 ft 314 kts 346°
2026-02-20 10:54 37.59414 14.89993 11799 ft 332 kts 346°
2026-02-20 10:55 37.61739 14.89544 12448 ft 343 kts 345°
2026-02-20 10:55 37.64108 14.89093 13358 ft 345 kts 346°
2026-02-20 10:55 37.66505 14.88636 14149 ft 351 kts 346°
2026-02-20 10:55 37.68936 14.88174 14940 ft 355 kts 346°
2026-02-20 10:56 37.71391 14.87707 15764 ft 359 kts 346°
2026-02-20 10:56 37.73885 14.87233 16457 ft 366 kts 347°
2026-02-20 10:56 37.76418 14.86749 17204 ft 370 kts 347°
2026-02-20 10:56 37.78982 14.86259 17945 ft 375 kts 347°
2026-02-20 10:57 37.81574 14.85764 18614 ft 379 kts 347°
2026-02-20 10:57 37.84194 14.85263 19262 ft 383 kts 347°
2026-02-20 10:57 37.86840 14.84759 19900 ft 386 kts 347°
2026-02-20 10:57 37.89507 14.84248 20514 ft 390 kts 347°
2026-02-20 10:58 37.92199 14.83733 21146 ft 392 kts 347°
2026-02-20 10:58 37.94906 14.83215 21767 ft 396 kts 347°
2026-02-20 10:58 37.97645 14.82690 22329 ft 400 kts 347°
2026-02-20 10:58 38.00409 14.82159 22914 ft 404 kts 347°
2026-02-20 10:59 38.03196 14.81623 23526 ft 407 kts 347°
2026-02-20 10:59 38.06009 14.81083 23995 ft 411 kts 348°
2026-02-20 10:59 38.08848 14.80539 24471 ft 414 kts 347°
2026-02-20 10:59 38.11698 14.79991 24977 ft 415 kts 347°
2026-02-20 11:00 38.14567 14.79438 25372 ft 419 kts 347°
2026-02-20 11:00 38.17458 14.78882 25832 ft 421 kts 347°
2026-02-20 11:00 38.20368 14.78320 26307 ft 424 kts 347°
2026-02-20 11:00 38.23300 14.77754 26699 ft 429 kts 347°
2026-02-20 11:01 38.26258 14.77183 27141 ft 431 kts 347°
2026-02-20 11:01 38.29236 14.76608 27569 ft 434 kts 347°
2026-02-20 11:01 38.32231 14.76028 27982 ft 437 kts 347°
2026-02-20 11:01 38.35249 14.75444 28392 ft 440 kts 347°
2026-02-20 11:02 38.38245 14.74864 28786 ft 443 kts 347°
2026-02-20 11:02 38.41299 14.74271 29180 ft 446 kts 347°
2026-02-20 11:02 38.44379 14.73674 29544 ft 449 kts 347°
2026-02-20 11:02 38.47480 14.73072 29887 ft 453 kts 347°
2026-02-20 11:03 38.50603 14.72465 30226 ft 455 kts 347°
2026-02-20 11:03 38.53744 14.71854 30523 ft 458 kts 347°
2026-02-20 11:03 38.56900 14.71240 30821 ft 460 kts 347°
2026-02-20 11:03 38.60068 14.70623 31186 ft 460 kts 347°
2026-02-20 11:04 38.63231 14.70007 31604 ft 460 kts 347°
2026-02-20 11:04 38.66388 14.69392 32037 ft 459 kts 347°
2026-02-20 11:04 38.69547 14.68775 32433 ft 459 kts 347°
2026-02-20 11:04 38.72700 14.68159 32839 ft 458 kts 347°
2026-02-20 11:05 38.75855 14.67542 33237 ft 458 kts 347°
2026-02-20 11:05 38.79002 14.66926 33642 ft 458 kts 347°
2026-02-20 11:05 38.82153 14.66309 33949 ft 459 kts 347°
2026-02-20 11:05 38.85311 14.65689 33976 ft 458 kts 347°
2026-02-20 11:06 38.91551 14.64463 33968 ft 457 kts 348°
2026-02-20 11:06 38.97844 14.63223 33958 ft 458 kts 348°
2026-02-20 11:07 39.04135 14.61983 33949 ft 457 kts 348°
2026-02-20 11:07 39.10407 14.60658 33943 ft 455 kts 342°
2026-02-20 11:08 39.13325 14.59205 33941 ft 446 kts 327°
2026-02-20 11:08 39.15959 14.57110 33933 ft 448 kts 328°
2026-02-20 11:08 39.21456 14.53320 33958 ft 449 kts 329°
2026-02-20 11:09 39.26989 14.49599 33945 ft 448 kts 330°
2026-02-20 11:09 39.32525 14.45892 33939 ft 448 kts 330°
2026-02-20 11:10 39.38063 14.42178 33939 ft 448 kts 330°
2026-02-20 11:10 39.43596 14.38461 33932 ft 448 kts 330°
2026-02-20 11:11 39.49130 14.34737 33929 ft 448 kts 330°
2026-02-20 11:11 39.54661 14.31008 33934 ft 448 kts 330°
2026-02-20 11:12 39.60188 14.27275 33939 ft 448 kts 330°
2026-02-20 11:12 39.65714 14.23536 33925 ft 448 kts 330°
2026-02-20 11:13 39.71236 14.19795 33912 ft 446 kts 330°
2026-02-20 11:13 39.76714 14.16074 33915 ft 444 kts 330°
2026-02-20 11:14 39.82187 14.12350 33917 ft 444 kts 330°
2026-02-20 11:14 39.84921 14.10487 33918 ft 444 kts 330°
2026-02-20 11:15 39.92522 14.05300 33909 ft 444 kts 330°
2026-02-20 11:15 39.98261 14.01375 33913 ft 444 kts 330°
2026-02-20 11:16 40.03727 13.97629 33912 ft 444 kts 330°
2026-02-20 11:16 40.09190 13.93880 33902 ft 444 kts 330°
2026-02-20 11:17 40.14647 13.90127 33892 ft 443 kts 330°
2026-02-20 11:17 40.20106 13.86366 33881 ft 443 kts 330°
2026-02-20 11:18 40.25552 13.82624 33883 ft 440 kts 331°
2026-02-20 11:18 40.30954 13.78874 33875 ft 439 kts 331°
2026-02-20 11:19 40.36354 13.75131 33853 ft 439 kts 331°
2026-02-20 11:19 40.41756 13.71382 33845 ft 439 kts 331°
2026-02-20 11:20 40.47155 13.67627 33845 ft 439 kts 331°
2026-02-20 11:20 40.52515 13.63894 33855 ft 439 kts 331°
2026-02-20 11:21 40.57921 13.60121 33801 ft 441 kts 331°
2026-02-20 11:21 40.60625 13.58232 33503 ft 440 kts 331°
2026-02-20 11:21 40.63325 13.56344 33132 ft 439 kts 331°
2026-02-20 11:22 40.66015 13.54460 32675 ft 438 kts 331°
2026-02-20 11:22 40.68707 13.52575 32200 ft 438 kts 331°
2026-02-20 11:22 40.71393 13.50691 31727 ft 437 kts 331°
2026-02-20 11:22 40.74079 13.48804 31259 ft 437 kts 331°
2026-02-20 11:23 40.76757 13.46936 30796 ft 435 kts 331°
2026-02-20 11:23 40.79422 13.45052 30353 ft 435 kts 332°
2026-02-20 11:23 40.82089 13.43173 29901 ft 435 kts 332°
2026-02-20 11:23 40.84756 13.41294 29352 ft 435 kts 332°
2026-02-20 11:24 40.87438 13.39402 28797 ft 437 kts 332°
2026-02-20 11:24 40.90128 13.37503 28251 ft 440 kts 332°
2026-02-20 11:24 40.92831 13.35593 27735 ft 442 kts 332°
2026-02-20 11:24 40.95551 13.33670 27206 ft 444 kts 331°
2026-02-20 11:25 40.98285 13.31735 26678 ft 447 kts 331°
2026-02-20 11:25 41.01032 13.29788 26170 ft 449 kts 331°
2026-02-20 11:25 41.03793 13.27830 25663 ft 451 kts 331°
2026-02-20 11:25 41.06561 13.25865 25163 ft 452 kts 331°
2026-02-20 11:26 41.09329 13.23898 24684 ft 451 kts 331°
2026-02-20 11:26 41.12089 13.21934 24202 ft 449 kts 331°
2026-02-20 11:26 41.14835 13.19979 23646 ft 446 kts 330°
2026-02-20 11:26 41.17558 13.18038 22821 ft 442 kts 330°
2026-02-20 11:27 41.20253 13.16119 22040 ft 437 kts 330°
2026-02-20 11:27 41.22839 13.14059 21420 ft 430 kts 327°
2026-02-20 11:27 41.25360 13.11954 20972 ft 423 kts 327°
2026-02-20 11:27 41.27825 13.09918 20526 ft 411 kts 327°
2026-02-20 11:28 41.30224 13.07943 20092 ft 401 kts 327°
2026-02-20 11:28 41.32574 13.06010 19664 ft 395 kts 327°
2026-02-20 11:28 41.34904 13.04092 19230 ft 392 kts 327°
2026-02-20 11:28 41.37213 13.02192 18684 ft 387 kts 327°
2026-02-20 11:29 41.39492 13.00314 18108 ft 383 kts 327°
2026-02-20 11:29 41.41743 12.98457 17465 ft 379 kts 328°
2026-02-20 11:29 41.43973 12.96617 16832 ft 376 kts 328°
2026-02-20 11:29 41.46186 12.94789 16153 ft 373 kts 328°
2026-02-20 11:30 41.48382 12.92973 15492 ft 370 kts 328°
2026-02-20 11:30 41.50567 12.91166 14861 ft 368 kts 328°
2026-02-20 11:30 41.52737 12.89369 14282 ft 366 kts 328°
2026-02-20 11:30 41.54740 12.87293 13696 ft 364 kts 319°
2026-02-20 11:31 41.56642 12.85074 13096 ft 362 kts 320°
2026-02-20 11:31 41.58554 12.82894 12598 ft 360 kts 320°
2026-02-20 11:31 41.60461 12.80741 12097 ft 358 kts 320°
2026-02-20 11:31 41.62361 12.78610 11601 ft 355 kts 321°
2026-02-20 11:32 41.64196 12.76557 11123 ft 353 kts 321°
2026-02-20 11:32 41.66070 12.74462 10644 ft 349 kts 321°
2026-02-20 11:32 41.69774 12.70319 9960 ft 346 kts 321°
2026-02-20 11:33 41.71619 12.68255 9833 ft 346 kts 321°
2026-02-20 11:33 41.73454 12.66198 9330 ft 342 kts 321°
2026-02-20 11:33 41.75270 12.64162 8871 ft 338 kts 321°
2026-02-20 11:33 41.77055 12.62159 8498 ft 331 kts 321°
2026-02-20 11:34 41.78793 12.60207 8131 ft 318 kts 321°
2026-02-20 11:34 41.80421 12.58379 7764 ft 302 kts 321°
2026-02-20 11:34 41.82018 12.56582 7416 ft 298 kts 321°
2026-02-20 11:34 41.83603 12.54798 7060 ft 297 kts 321°
2026-02-20 11:35 41.85183 12.53020 6699 ft 296 kts 321°
2026-02-20 11:35 41.86755 12.51249 6342 ft 295 kts 321°
2026-02-20 11:35 41.88321 12.49482 5967 ft 294 kts 321°
2026-02-20 11:35 41.89883 12.47720 5589 ft 293 kts 321°
2026-02-20 11:36 41.91440 12.45962 5193 ft 292 kts 321°
2026-02-20 11:36 41.92994 12.44208 4773 ft 291 kts 321°
2026-02-20 11:36 41.94542 12.42457 4357 ft 291 kts 321°
2026-02-20 11:36 41.96082 12.40716 3893 ft 286 kts 321°
2026-02-20 11:37 41.97588 12.39012 3495 ft 282 kts 321°
2026-02-20 11:37 41.99075 12.37332 3237 ft 276 kts 321°
2026-02-20 11:37 42.00344 12.35449 3042 ft 271 kts 301°
2026-02-20 11:37 42.00836 12.33069 3028 ft 262 kts 273°
2026-02-20 11:38 42.00505 12.30708 3020 ft 254 kts 255°
2026-02-20 11:38 42.00132 12.29240 3005 ft 246 kts 254°
2026-02-20 11:38 41.99585 12.27115 2916 ft 237 kts 254°
2026-02-20 11:38 41.99045 12.25058 2665 ft 230 kts 254°
2026-02-20 11:39 41.98528 12.23043 2325 ft 225 kts 253°
2026-02-20 11:39 41.97910 12.21210 2239 ft 209 kts 234°
2026-02-20 11:39 41.96781 12.20072 2038 ft 204 kts 202°
2026-02-20 11:39 41.95388 12.19948 1793 ft 206 kts 161°
2026-02-20 11:40 41.94183 12.20867 1877 ft 202 kts 143°
2026-02-20 11:40 41.93035 12.21969 1678 ft 201 kts 145°
2026-02-20 11:40 41.91918 12.22936 1530 ft 178 kts 152°
2026-02-20 11:40 41.90824 12.23592 1295 ft 169 kts 158°
2026-02-20 11:41 41.89751 12.24185 997 ft 164 kts 158°
2026-02-20 11:41 41.88680 12.24621 766 ft 157 kts 168°
2026-02-20 11:41 41.87640 12.24943 588 ft 149 kts 168°
2026-02-20 11:41 41.86644 12.25323 427 ft 148 kts 166°
2026-02-20 11:42 41.85664 12.25711 309 ft 146 kts 167°
2026-02-20 11:42 41.84702 12.26123 100 ft 144 kts 165°
2026-02-20 11:42 41.83785 12.26488 20 ft 123 kts 163°
2026-02-20 11:42 41.83200 12.26731 13 ft 56 kts 162°
2026-02-20 11:43 41.82818 12.26865 16 ft 47 kts 175°
2026-02-20 11:43 41.82554 12.26824 13 ft 27 kts 192°
2026-02-20 11:43 41.82378 12.26782 13 ft 27 kts 181°
2026-02-20 11:43 41.82190 12.26835 13 ft 28 kts 162°
2026-02-20 11:44 41.82001 12.26911 13 ft 29 kts 163°
2026-02-20 11:44 41.81812 12.26988 14 ft 28 kts 162°
2026-02-20 11:44 41.81614 12.27074 14 ft 30 kts 162°
2026-02-20 11:44 41.81432 12.27151 14 ft 26 kts 163°
2026-02-20 11:45 41.81261 12.27222 14 ft 26 kts 163°
2026-02-20 11:45 41.81082 12.27296 15 ft 28 kts 162°
2026-02-20 11:45 41.80925 12.27348 15 ft 20 kts 178°
2026-02-20 11:45 41.80779 12.27321 15 ft 22 kts 190°
2026-02-20 11:46 41.80668 12.27247 15 ft 18 kts 232°
2026-02-20 11:46 41.80617 12.27080 17 ft 20 kts 250°
2026-02-20 11:46 41.80564 12.26891 16 ft 23 kts 249°
2026-02-20 11:46 41.80508 12.26684 18 ft 24 kts 249°
2026-02-20 11:47 41.80447 12.26464 18 ft 26 kts 250°
2026-02-20 11:47 41.80384 12.26237 20 ft 24 kts 249°
2026-02-20 11:47 41.80323 12.26014 16 ft 27 kts 250°
2026-02-20 11:47 41.80257 12.25772 17 ft 27 kts 249°
2026-02-20 11:48 41.80199 12.25564 16 ft 22 kts 250°
2026-02-20 11:48 41.80149 12.25378 16 ft 16 kts 251°
2026-02-20 11:48 41.80101 12.25229 16 ft 17 kts 236°
2026-02-20 11:48 41.79994 12.25142 16 ft 19 kts 205°
2026-02-20 11:49 41.79878 12.25069 18 ft 19 kts 205°
2026-02-20 11:49 41.79787 12.25012 16 ft 10 kts 205°
2026-02-20 11:49 41.79756 12.25008 16 ft 1 kts 134°
2026-02-20 11:49 41.79750 12.25029 16 ft 6 kts 112°
2026-02-20 11:50 41.79733 12.25078 18 ft 3 kts 115°
2026-02-20 11:50 41.79729 12.25088 16 ft 0 kts 115°